Home > Weather > Kleve > Past weeks

Flag for Germany Past Weather in Kleve, North Rhine-Westphalia, Germany — Yesterday and Last 2 Weeks

Now
64 °F

Scattered showers. Scattered clouds.


Feels Like: 64 °F
Forecast: 54 / 63 °F
Wind: 8 mph from South

Location: Niederrhein

Current Time: Jun 26, 2016 at 7:27:45 PM

Latest Report: Jun 26, 2016 at 6:50 PM


Visibility: N/A

Pressure: 30.04 "Hg

Humidity: 68%

Dew Point: 54 °F

Location of KleveLocation

Past Weather in Kleve — Graph

°F

Kleve Temperature Yesterday

Maximum temperature yesterday: 64 °F (at 9:50 AM)
Minimum temperature yesterday: 54 °F (at 11:50 PM)
Average temperature yesterday: 61 °F

High & Low Weather Summary for the Past Weeks

 TemperatureHumidityPressure
High90 °F (Jun 23, 4:50 PM)100% (Jun 12, 10:20 PM)30.27 "Hg (Jun 12, 10:20 PM)
Low52 °F (Jun 16, 5:50 AM)46% (Jun 19, 4:50 PM)29.45 "Hg (Jun 14, 4:50 PM)
Average64 °F82%29.88 "Hg
* Reported Jun 11 5:20 PM — Jun 26 5:50 PM, Kleve, Weather by CustomWeather, © 2016

Note: Actual official high and low records may vary slightly from our data, if they occured in-between our weather recording intervals... More about our weather records

Advertising

Kleve Weather History for the Previous 24 Hours

Scroll right to see more
 ConditionsComfort  
Time TempWeatherWind HumidityBarometerVisibility
5:50 PM
Sun, Jun 26
66 °FScattered clouds.6 mph68%30.04 "HgN/A
5:20 PM64 °FScattered clouds.7 mph73%30.04 "HgN/A
4:50 PM63 °FPassing clouds.6 mph77%30.04 "HgN/A
4:20 PM61 °FPassing clouds.6 mph83%30.04 "HgN/A
3:50 PM57 °FScattered showers. Scattered clouds.7 mph94%30.07 "HgN/A
3:20 PM57 °FThundershowers. Scattered clouds.7 mph88%30.04 "Hg6 mi
2:50 PM57 °FThunderstorms. Partly sunny.6 mph88%30.04 "Hg3 mi
2:20 PM63 °FScattered showers. Scattered clouds.7 mph68%30.04 "HgN/A
1:50 PM64 °FScattered clouds.12 mph64%30.04 "HgN/A
1:20 PM64 °FScattered showers. Scattered clouds.12 mph68%30.04 "HgN/A
12:50 PM64 °FScattered showers. Scattered clouds.12 mph73%30.04 "HgN/A
12:20 PM63 °FScattered clouds.10 mph73%30.04 "HgN/A
11:50 AM61 °FPartly sunny.8 mph77%30.04 "HgN/A
11:20 AM61 °FPartly sunny.8 mph77%30.04 "HgN/A
10:50 AM59 °FPartly sunny.12 mph82%30.04 "HgN/A
10:20 AM59 °FPartly sunny.10 mph82%30.04 "Hg6 mi
9:50 AM57 °FPartly sunny.8 mph88%30.04 "HgN/A
9:20 AM57 °FPartly sunny.7 mph88%30.04 "HgN/A
8:50 AM55 °FPartly sunny.8 mph94%30.04 "HgN/A
8:20 AM55 °FPartly sunny.7 mph94%30.01 "HgN/A
7:50 AM55 °FPartly sunny.6 mph88%30.01 "HgN/A
7:20 AM55 °FPassing clouds.6 mph88%30.01 "HgN/A
6:50 AM54 °FClear.5 mph94%30.01 "Hg10 mi
6:20 AM54 °FPassing clouds.5 mph94%30.01 "HgN/A
5:50 AM52 °FPassing clouds.5 mph94%30.01 "HgN/A
5:20 AM52 °FClear.5 mph94%30.01 "Hg10 mi
4:50 AM54 °FPassing clouds.5 mph88%30.01 "HgN/A
11:50 PM
Sat, Jun 25
54 °FSunny.6 mph94%30.01 "Hg10 mi
11:20 PM55 °FSunny.3 mph88%30.01 "Hg10 mi
10:50 PM57 °FSunny.5 mph88%30.01 "Hg10 mi
10:20 PM57 °FPassing clouds.1 mph88%30.01 "Hg6 mi
9:50 PM57 °FScattered showers. Passing clouds.15 mph82%30.01 "HgN/A
9:20 PM61 °FScattered showers. Broken clouds.2 mph88%30.01 "HgN/A
8:50 PM61 °FPassing clouds.6 mph88%30.01 "HgN/A
8:20 PM63 °FPassing clouds.5 mph83%29.98 "HgN/A
7:50 PM63 °FPassing clouds.6 mph88%29.98 "HgN/A
7:20 PM61 °FSunny.6 mph94%29.98 "Hg10 mi
Weather by CustomWeather, © 2016

See weather overviewHow to use our weather pages